Weather History for KBPT - October, 2011

Change the Weather History Date:

Saturday, October 1, 2011

  Actual Average Record
Temperature  
Mean Temperature 71 °F 75 °F  
Max Temperature 84 °F 85 °F 99 °F (1905)
Min Temperature 58 °F 65 °F 47 °F (1984)
Degree Days  
Heating Degree Days 0 0  
Month to date heating degree days 0 0  
Since 1 July heating degree days 0 1  
Cooling Degree Days 6 10  
Month to date cooling degree days 6 10  
Year to date cooling degree days 3165 2596  
Growing Degree Days 20 (Base 50)    
Moisture  
Dew Point 47 °F    
Average Humidity 54    
Maximum Humidity 84    
Minimum Humidity 23    
Precipitation  
Precipitation 0.00 in 0.17 in 3.30 in (1945)
Month to date precipitation 0.00 0.17  
Year to date precipitation 24.90 45.37  
Snow  
Snow 0.00 in 0.00 in 0.00 in ()
Month to date snowfall 0.0 0.0  
Since 1 July snowfall 0.0 0.0  
Since 1 September snowfall 0.0 0.0  
Snow Depth 0.00 in    
Sea Level Pressure  
Sea Level Pressure 30.11 in    
Wind  
Wind Speed 6 mph (ENE)    
Max Wind Speed 18 mph    
Max Gust Speed 26 mph    
Visibility 10 miles    
Events      
T = Trace of Precipitation, MM = Missing Value Source: NWS Daily Summary

Daily Weather History Graph

Daily Weather History Graph

Search for Another Location

Airport or City:

Trip Planner

Search our weather history database for the weather conditions in past years. The results will help you decide how hot, cold, wet, or windy it might be!

Date:

Astronomy

Oct. 01, 2011 Rise Set
Actual Time 7:09 AM CDT 7:01 PM CDT
Civil Twilight 6:45 AM CDT 7:25 PM CDT
Nautical Twilight 6:17 AM CDT 7:53 PM CDT
Astronomical Twilight 5:49 AM CDT 8:21 PM CDT
Moon 11:51 AM CDT (10/1) 10:24 PM CDT (10/1)
Length of Visible Light 12h 40m
Length of Day
11h 52m
Waxing Crescent, 24% of the Moon is Illuminated
Oct 1
Waxing Crescent
Oct 3
First Quarter
Oct 11
Full
Oct 19
Last Quarter
Oct 26
New

Hourly Weather History & Observations

Time (CDT) Temp. Dew Point Humidity Pressure Visibility Wind Dir Wind Speed Gust Speed Precip Events Conditions
12:53 AM 69.1 °F 48.0 °F 47% 30.06 in 10.0 mi ENE 8.1 mph - N/A   Clear
1:53 AM 66.9 °F 48.9 °F 52% 30.06 in 10.0 mi NE 5.8 mph - N/A   Clear
2:53 AM 64.0 °F 48.9 °F 58% 30.06 in 10.0 mi ENE 5.8 mph - N/A   Clear
3:53 AM 63.0 °F 46.9 °F 56% 30.06 in 10.0 mi NE 6.9 mph - N/A   Clear
4:53 AM 64.0 °F 46.0 °F 52% 30.06 in 10.0 mi ENE 8.1 mph - N/A   Clear
5:53 AM 62.1 °F 45.0 °F 53% 30.08 in 10.0 mi NE 6.9 mph - N/A   Clear
6:53 AM 59.0 °F 46.0 °F 62% 30.10 in 10.0 mi NE 6.9 mph - N/A   Clear
7:53 AM 61.0 °F 46.9 °F 60% 30.12 in 10.0 mi NE 4.6 mph - N/A   Clear
8:53 AM 68.0 °F 44.1 °F 42% 30.15 in 10.0 mi ENE 11.5 mph - 0.01 in   Clear
9:53 AM 73.4 °F 42.8 °F 33% 30.18 in 10.0 mi ENE 11.5 mph 19.6 mph N/A   Clear
10:53 AM 77.0 °F 42.1 °F 29% 30.19 in 10.0 mi East 13.8 mph 18.4 mph N/A   Clear
11:53 AM 78.1 °F 39.9 °F 25% 30.19 in 10.0 mi NE 18.4 mph 21.9 mph N/A   Clear
12:53 PM 79.0 °F 41.0 °F 26% 30.17 in 10.0 mi NE 12.7 mph - N/A   Clear
1:53 PM 81.0 °F 41.0 °F 24% 30.14 in 10.0 mi NNE 11.5 mph 18.4 mph N/A   Clear
2:53 PM 82.4 °F 41.0 °F 23% 30.11 in 10.0 mi Variable 3.5 mph - N/A   Clear
3:53 PM 82.9 °F 42.1 °F 24% 30.09 in 10.0 mi SE 4.6 mph - N/A   Clear
4:53 PM 82.9 °F 41.0 °F 23% 30.09 in 10.0 mi Calm Calm - N/A   Clear
5:53 PM 80.1 °F 46.0 °F 30% 30.08 in 10.0 mi ESE 5.8 mph - N/A   Clear
6:53 PM 73.4 °F 50.0 °F 44% 30.08 in 10.0 mi SSE 4.6 mph - N/A   Clear
7:53 PM 68.0 °F 51.1 °F 55% 30.09 in 10.0 mi Calm Calm - N/A   Clear
8:53 PM 64.4 °F 53.6 °F 68% 30.11 in 10.0 mi Calm Calm - N/A   Clear
9:53 PM 62.1 °F 57.0 °F 84% 30.13 in 10.0 mi Calm Calm - N/A   Clear
10:53 PM 60.1 °F 54.0 °F 80% 30.14 in 10.0 mi Calm Calm - N/A   Clear
11:53 PM 59.0 °F 53.1 °F 81% 30.14 in 9.0 mi Calm Calm - N/A   Clear